Wind_Speed
52 51 49 49 51 49 49 49 46 45 43 41 39 41 41 41 42 41 43 49 56 53 55 57 57 57 60 60 59 59 65 67 62 63 62 52 53 53 50 52 52 55 55 60 85
53 54 53 51 52 50 51 49 45 42 42 41 43 43 41 40 39 42 47 53 51 51 57 62 62 61 63 63 62 63 67 67 63 63 64 56 55 53 54 53 53 57 56 71 79
55 54 55 54 54 50 51 51 46 40 42 43 42 38 42 43 41 44 50 55 49 53 56 54 54 57 61 64 63 64 66 64 66 65 64 60 61 63 64 57 55 60 59 69 76
58 57 54 53 53 51 49 49 43 41 41 39 44 42 46 44 49 53 51 41 45 45 46 48 52 58 62 63 65 66 66 65 63 65 70 63 62 63 59 52 57 52 63 77 67
58 56 54 50 50 50 46 43 40 40 36 40 41 42 45 47 50 46 40 40 41 44 47 50 55 59 59 59 60 63 63 61 63 66 70 63 66 62 57 54 53 60 66 73 59
58 55 52 46 45 46 41 36 40 38 36 37 39 42 48 46 36 34 31 30 34 39 41 40 41 42 44 45 49 52 60 62 65 68 69 65 64 64 56 53 54 59 60 60 65
52 51 47 43 41 39 36 35 39 33 32 35 39 43 47 28 29 24 16 19 24 21 19 15 15 17 16 19 20 26 40 52 62 64 65 60 64 66 53 53 53 58 62 52 55
47 48 44 41 37 35 32 35 36 29 34 33 37 49 22 22 19 9 16 19 18 18 16 13 13 14 16 16 19 23 23 24 29 56 57 59 60 53 48 53 53 58 64 46 45
46 46 41 41 35 33 33 36 30 33 29 35 39 17 16 10 4 12 17 21 18 19 18 17 17 17 20 24 21 26 25 25 22 35 51 55 50 43 55 48 48 55 60 53 42
49 48 42 41 35 34 33 34 30 28 26 35 27 14 9 4 7 13 15 18 18 20 21 23 22 20 20 22 22 13 21 24 22 27 41 48 46 43 45 42 44 52 53 47 37
38 39 46 45 40 34 32 31 28 22 28 31 6 6 3 2 11 15 16 16 17 17 19 21 25 15 18 20 16 12 14 13 12 24 32 40 35 39 37 37 40 54 52 50 39
30 34 37 43 41 36 32 29 21 17 21 5 2 4 5 6 11 16 12 13 15 15 14 18 15 12 17 8 8 9 6 12 18 11 24 28 33 33 29 32 37 48 42 50 48
30 29 30 36 39 35 29 22 16 17 17 7 6 4 2 9 13 13 9 12 17 19 16 16 9 10 2 5 10 8 25 19 17 17 22 25 24 27 24 29 39 26 45 44 50
22 30 30 35 37 34 23 18 14 14 7 8 6 4 6 7 12 14 10 11 22 13 7 6 8 9 3 10 18 21 17 22 25 22 19 19 18 16 19 28 34 25 43 43 54
29 32 28 31 31 27 21 11 8 17 14 15 9 7 9 9 9 9 18 13 15 17 14 13 17 32 32 30 27 25 26 33 27 17 15 16 13 14 26 25 22 29 47 43 41
35 36 25 28 29 25 17 10 5 17 15 13 11 11 12 14 11 9 12 16 20 24 27 27 30 28 30 32 31 23 27 22 23 17 22 15 12 20 22 9 25 38 38 44 35
35 34 29 31 28 22 14 7 17 20 19 14 11 12 12 12 13 11 12 12 18 21 27 31 27 21 20 25 18 25 17 19 18 21 20 12 7 19 16 10 27 34 34 29 30
37 33 31 30 24 19 18 22 26 21 20 16 14 13 13 13 12 12 11 8 17 18 12 9 15 16 17 16 19 15 16 24 18 27 24 17 20 17 16 19 24 37 34 27 24
37 36 32 29 20 14 19 29 26 25 21 18 16 12 11 14 14 11 13 14 14 13 16 18 20 22 25 24 21 18 27 26 31 31 27 24 22 20 23 24 24 28 35 36 26
39 35 31 27 20 14 26 31 28 23 17 14 14 13 13 14 16 14 13 10 8 6 14 18 19 28 25 26 21 25 27 30 35 37 30 29 28 28 21 23 25 24 25 24 24
36 31 27 20 13 13 24 29 28 21 14 11 13 13 13 16 19 18 17 15 15 14 14 12 18 28 24 26 25 27 28 24 31 28 29 31 33 33 29 25 21 14 13 14 10
26 22 15 13 15 18 23 27 23 18 11 10 13 14 12 13 17 20 21 17 13 15 22 24 26 27 25 29 26 26 21 20 17 18 17 18 23 24 24 21 18 15 16 13 9
18 16 15 15 16 18 18 21 19 13 9 7 8 10 9 9 11 11 15 18 16 17 17 20 20 25 28 27 26 22 17 13 14 12 12 13 12 9 9 9 10 9 7 5 3
16 17 16 17 17 17 17 15 13 10 8 8 8 10 11 12 14 14 16 16 16 15 16 19 26 23 28 30 26 24 17 14 10 10 9 10 9 7 6 2 2 2 4 7 11
17 16 18 18 21 21 20 18 17 16 16 16 15 15 15 15 15 16 17 18 18 17 17 18 21 26 26 26 24 20 15 10 5 6 5 7 9 10 8 5 7 9 11 12 15
16 16 18 20 23 24 25 24 25 24 24 23 22 21 21 22 22 21 22 21 21 20 18 19 18 19 18 17 17 17 14 9 6 1 3 8 8 11 12 12 13 16 20 21 21
16 15 18 22 22 24 26 26 26 27 28 28 27 27 27 27 26 26 26 26 26 24 23 22 20 19 16 14 12 13 12 10 10 12 11 11 12 11 10 11 14 18 21 24 27
Wind_Direction
283 283 283 284 282 281 279 279 281 282 276 278 281 282 284 283 277 275 275 272 267 267 267 265 265 264 265 267 266 265 264 263 265 267 269 266 260 259 254 247 246 241 235 221 217
283 285 285 280 278 276 276 276 276 274 274 271 276 281 285 280 287 283 279 273 274 271 267 266 268 268 268 268 268 267 266 266 266 264 264 257 247 248 246 239 239 235 232 219 219
279 279 280 280 276 272 273 275 274 273 270 270 275 280 281 284 286 292 289 275 273 273 272 271 272 271 271 271 271 269 268 265 262 258 256 249 238 234 236 234 236 230 224 217 220
276 276 276 275 273 271 269 273 269 266 271 272 270 277 289 291 294 294 295 291 283 277 276 279 279 277 277 276 272 269 266 260 254 247 249 242 237 237 239 236 231 225 222 218 221
278 276 275 273 267 266 267 268 263 264 274 267 276 279 288 294 294 294 293 289 288 290 291 288 285 282 277 272 266 264 260 251 245 241 242 235 234 232 237 234 233 225 218 220 218
277 274 272 267 260 262 261 258 256 263 268 271 279 279 291 291 298 298 297 295 295 302 299 292 283 278 272 268 263 256 251 246 240 237 236 233 229 232 231 228 227 223 220 225 220
270 267 264 259 255 255 255 248 253 263 272 278 283 295 301 306 307 301 303 333 335 324 317 314 314 307 292 278 274 265 255 250 240 238 237 232 228 229 224 226 224 219 215 217 223
264 262 257 252 252 250 245 243 249 256 267 276 284 293 306 309 305 316 336 348 342 359 1 345 335 317 301 286 274 274 274 272 257 240 234 229 226 229 222 227 227 220 214 213 216
264 258 252 247 244 244 239 240 248 250 275 280 286 313 313 314 331 330 344 339 339 333 330 319 309 301 293 277 274 275 275 286 268 237 230 225 223 220 218 222 228 220 210 213 209
262 255 245 237 237 239 236 238 242 258 279 280 287 308 307 351 354 351 336 342 331 320 314 311 305 289 287 278 266 281 280 277 270 243 214 217 216 216 218 224 229 218 215 212 203
252 246 238 233 236 232 233 233 242 262 274 286 317 282 183 16 354 352 337 329 328 321 315 319 309 283 294 274 261 278 270 259 256 188 208 207 204 211 216 224 224 210 207 207 196
250 239 231 228 229 225 228 229 239 257 288 277 223 194 173 347 350 346 334 332 329 317 329 333 323 284 320 282 245 214 207 122 99 158 179 190 199 210 218 220 220 202 192 195 200
241 219 213 210 214 211 220 223 241 257 277 159 168 196 19 21 4 354 352 347 345 324 323 324 327 325 208 200 187 197 141 138 142 141 165 183 200 216 234 211 209 188 176 184 192
213 201 190 197 201 208 210 219 238 242 158 148 146 115 61 19 10 21 12 14 19 8 338 35 65 118 161 122 123 123 136 90 124 138 154 170 203 228 204 208 220 192 180 183 198
180 181 179 182 187 192 201 203 264 146 152 122 103 78 51 27 25 23 48 48 35 57 73 121 72 107 103 106 105 112 98 117 118 128 143 170 179 219 191 190 200 197 195 188 193
167 161 167 160 172 182 180 184 187 156 142 122 99 81 67 50 37 44 53 65 68 73 84 91 105 96 105 112 108 117 116 104 127 132 154 133 113 222 181 158 172 175 182 190 195
158 149 142 155 166 169 168 193 155 139 128 112 94 81 70 53 47 52 66 71 85 81 95 96 96 100 109 115 92 103 95 117 119 135 147 72 127 187 212 196 183 176 187 184 202
144 142 142 149 156 165 171 147 139 128 121 104 92 82 69 60 56 60 78 106 75 75 89 85 59 87 79 93 80 130 109 128 109 103 146 102 121 147 142 147 174 187 185 190 214
141 138 141 142 144 151 153 150 130 130 120 108 92 83 71 57 60 66 75 87 98 96 78 95 113 99 89 90 102 128 123 107 84 85 102 94 107 119 130 150 163 183 193 190 207
134 137 140 140 134 107 142 143 135 138 135 112 90 82 72 64 69 77 80 77 78 76 109 99 112 112 103 91 97 110 97 90 77 74 86 83 92 98 123 138 176 176 186 203 222
130 135 137 140 134 135 144 145 146 152 140 111 86 86 85 78 77 79 80 77 83 87 90 110 113 119 110 96 86 89 93 75 77 74 78 77 77 72 71 79 94 117 155 181 204
116 121 127 119 121 127 132 149 155 165 152 121 97 82 91 92 83 77 77 80 81 84 107 105 114 121 114 109 101 95 92 82 78 78 62 63 71 67 67 74 77 82 73 68 45
91 92 100 105 109 110 122 143 155 164 161 132 103 70 101 92 90 79 68 78 83 93 102 106 112 122 116 111 107 100 99 90 91 79 70 67 65 48 44 29 30 18 29 45 1
87 100 98 101 107 113 118 128 145 154 142 117 88 80 88 91 86 86 91 92 96 95 99 103 112 123 119 115 112 108 95 99 103 77 38 48 31 33 34 48 161 274 220 232 277
77 80 92 102 110 113 113 119 126 125 116 104 92 86 83 83 84 84 90 99 101 102 101 104 117 125 128 124 119 113 105 97 74 64 34 19 357 344 340 308 277 256 253 252 260
64 81 98 107 113 111 107 107 103 100 98 95 90 84 81 79 77 75 76 80 88 96 101 98 97 103 113 120 123 128 124 127 126 114 307 329 354 22 11 0 344 329 325 324 319
66 83 106 111 108 105 102 101 100 98 95 93 90 88 85 80 76 74 73 70 68 72 78 87 93 95 103 109 111 108 100 94 88 80 74 68 51 39 24 11 359 352 343 333 326
Height
5709 5706 5705 5701 5700 5700 5699 5699 5698 5697 5697 5695 5693 5692 5690 5688 5686 5684 5683 5681 5681 5681 5679 5678 5677 5678 5678 5680 5680 5679 5681 5684 5690 5692 5697 5704 5698 5703 5708 5710 5715 5716 5721 5730 5733
5697 5694 5693 5692 5689 5687 5688 5688 5688 5687 5687 5687 5685 5683 5681 5679 5677 5674 5672 5671 5668 5667 5666 5665 5663 5662 5663 5664 5662 5661 5667 5668 5673 5674 5678 5686 5686 5691 5691 5696 5700 5706 5713 5719 5723
5681 5681 5680 5678 5678 5677 5676 5678 5678 5678 5677 5678 5676 5674 5672 5670 5667 5664 5661 5657 5654 5652 5650 5650 5648 5647 5646 5645 5644 5645 5655 5651 5654 5656 5661 5667 5668 5671 5673 5682 5689 5695 5705 5706 5712
5665 5665 5666 5666 5665 5665 5666 5668 5669 5669 5668 5668 5666 5665 5663 5659 5657 5651 5647 5642 5640 5639 5636 5632 5630 5628 5628 5627 5624 5625 5632 5630 5635 5638 5638 5649 5656 5660 5666 5676 5679 5690 5688 5698 5710
5648 5649 5650 5652 5653 5652 5656 5658 5659 5659 5660 5659 5659 5657 5654 5650 5646 5639 5634 5631 5627 5622 5617 5614 5612 5610 5608 5606 5604 5604 5609 5614 5618 5621 5621 5635 5640 5651 5656 5664 5668 5676 5680 5687 5701
5632 5633 5635 5637 5640 5642 5646 5648 5650 5651 5651 5650 5650 5646 5645 5639 5634 5630 5626 5618 5612 5605 5602 5599 5596 5593 5592 5588 5587 5589 5590 5594 5599 5603 5607 5619 5629 5635 5647 5652 5658 5667 5678 5680 5691
5614 5617 5622 5624 5627 5633 5637 5639 5642 5643 5643 5643 5642 5639 5634 5629 5626 5622 5617 5609 5601 5595 5592 5590 5588 5586 5584 5581 5579 5577 5577 5580 5582 5589 5597 5609 5615 5620 5637 5641 5650 5657 5665 5673 5687
5599 5602 5608 5614 5616 5624 5628 5630 5633 5636 5636 5636 5635 5631 5627 5623 5620 5617 5611 5604 5600 5596 5592 5589 5586 5583 5580 5579 5576 5574 5573 5571 5575 5578 5587 5594 5606 5622 5631 5634 5642 5649 5657 5675 5683
5582 5588 5596 5602 5610 5615 5619 5622 5628 5629 5631 5631 5629 5625 5624 5619 5616 5612 5606 5600 5597 5593 5591 5587 5583 5581 5577 5573 5572 5569 5567 5565 5565 5564 5576 5585 5606 5615 5616 5631 5637 5644 5656 5667 5681
5564 5572 5584 5591 5600 5607 5611 5616 5621 5625 5625 5624 5623 5625 5619 5616 5612 5608 5603 5598 5595 5591 5587 5584 5579 5576 5572 5567 5567 5566 5562 5561 5559 5559 5567 5583 5598 5609 5619 5628 5633 5641 5649 5664 5676
5547 5556 5568 5578 5591 5599 5605 5611 5617 5621 5621 5622 5621 5621 5617 5614 5610 5605 5601 5597 5591 5587 5584 5580 5575 5571 5566 5562 5562 5562 5559 5557 5556 5557 5571 5585 5598 5608 5616 5623 5627 5635 5647 5662 5676
5536 5546 5557 5571 5583 5592 5598 5605 5613 5617 5616 5616 5619 5618 5615 5612 5608 5603 5599 5595 5590 5586 5581 5577 5570 5567 5563 5560 5560 5560 5559 5559 5559 5567 5576 5590 5600 5609 5615 5620 5625 5634 5644 5658 5673
5526 5538 5550 5563 5576 5585 5594 5603 5610 5612 5614 5616 5617 5616 5613 5610 5606 5602 5598 5594 5591 5584 5578 5573 5570 5566 5564 5562 5560 5559 5559 5558 5569 5577 5586 5595 5604 5610 5614 5619 5626 5632 5643 5655 5666
5519 5535 5547 5556 5572 5583 5594 5601 5606 5610 5616 5616 5616 5614 5612 5609 5607 5602 5598 5597 5592 5584 5577 5574 5572 5568 5567 5565 5565 5565 5566 5570 5577 5586 5595 5603 5609 5610 5614 5621 5627 5633 5644 5654 5664
5518 5532 5546 5558 5571 5584 5593 5601 5605 5607 5615 5616 5615 5614 5611 5610 5607 5604 5602 5598 5595 5588 5581 5579 5575 5572 5571 5571 5573 5575 5574 5580 5587 5596 5602 5607 5611 5611 5615 5623 5631 5635 5644 5655 5664
5521 5535 5547 5562 5574 5584 5593 5600 5607 5612 5613 5615 5614 5613 5612 5610 5608 5607 5604 5601 5599 5594 5587 5585 5583 5581 5580 5579 5580 5583 5583 5590 5593 5599 5605 5606 5612 5612 5618 5625 5628 5636 5645 5656 5663
5528 5543 5555 5566 5577 5585 5594 5601 5608 5611 5613 5616 5615 5614 5614 5613 5611 5608 5605 5603 5602 5600 5594 5591 5590 5591 5588 5589 5588 5590 5593 5598 5601 5603 5608 5610 5611 5614 5620 5626 5633 5641 5650 5657 5663
5538 5549 5561 5572 5581 5589 5597 5604 5608 5610 5614 5616 5617 5617 5617 5616 5613 5610 5608 5606 5605 5602 5600 5598 5598 5596 5593 5593 5596 5597 5600 5603 5606 5610 5615 5616 5616 5620 5622 5628 5636 5644 5651 5657 5664
5547 5559 5569 5578 5587 5592 5598 5605 5609 5613 5617 5619 5620 5620 5619 5618 5616 5613 5610 5608 5607 5606 5605 5603 5603 5602 5600 5600 5603 5603 5607 5610 5611 5616 5619 5620 5621 5624 5628 5634 5641 5647 5654 5661 5664
5560 5568 5577 5586 5593 5597 5603 5607 5612 5617 5621 5623 5623 5623 5622 5620 5619 5616 5613 5611 5610 5609 5609 5609 5610 5608 5608 5608 5609 5609 5613 5617 5621 5625 5626 5627 5627 5628 5633 5637 5645 5652 5656 5663 5668
5575 5582 5589 5594 5598 5603 5608 5611 5616 5620 5624 5626 5626 5626 5626 5624 5622 5620 5618 5616 5614 5612 5612 5613 5614 5614 5614 5616 5617 5621 5622 5625 5627 5632 5633 5636 5638 5640 5641 5646 5651 5655 5660 5665 5669
5593 5596 5599 5602 5606 5608 5611 5616 5620 5625 5627 5629 5630 5630 5629 5628 5627 5625 5623 5621 5620 5618 5617 5618 5618 5618 5620 5621 5624 5627 5630 5633 5636 5639 5641 5644 5645 5648 5652 5655 5657 5661 5662 5664 5667
5607 5608 5609 5611 5612 5614 5617 5621 5626 5629 5631 5632 5633 5634 5633 5631 5631 5629 5628 5627 5625 5625 5624 5624 5625 5625 5627 5630 5630 5633 5636 5638 5640 5642 5643 5646 5648 5650 5655 5657 5658 5662 5666 5667 5670
5618 5618 5619 5619 5621 5622 5624 5627 5630 5633 5635 5635 5636 5635 5634 5633 5633 5633 5632 5632 5630 5630 5630 5631 5630 5633 5634 5634 5636 5637 5639 5641 5644 5644 5645 5647 5648 5649 5650 5652 5655 5658 5659 5663 5666
5630 5630 5629 5630 5631 5631 5631 5633 5635 5637 5637 5638 5638 5637 5637 5636 5636 5636 5636 5636 5636 5635 5635 5636 5638 5638 5639 5639 5640 5642 5644 5644 5645 5646 5647 5647 5647 5648 5650 5651 5653 5658 5661 5660 5661
5639 5639 5639 5639 5639 5640 5640 5640 5642 5643 5643 5643 5643 5643 5642 5642 5641 5641 5641 5640 5641 5642 5642 5640 5642 5643 5645 5645 5646 5647 5646 5647 5648 5649 5650 5650 5651 5651 5650 5649 5648 5647 5643 5645 5649
5647 5647 5649 5649 5650 5649 5649 5650 5650 5651 5651 5651 5650 5650 5650 5649 5648 5648 5648 5647 5646 5646 5648 5647 5648 5648 5649 5649 5650 5651 5650 5651 5652 5652 5653 5655 5655 5655 5654 5653 5650 5646 5645 5643 5644